East China, Michigan
Current Conditions -  °F | °C
As of 7:56 PM on Saturday 25 Oct 2014 (Local Time) from KPHN Reporting Station
Clear Clear  
Wind Chill: 59°   Ceiling: Unl
Heat Index: 59°   Visibility: 10mi
Dew Point: 34°   Wind: 12mph
Humidity: 39%   Direction: 280°W
Pressure: 29.73"   Gusts: 17mph
Location:  42.77°N, 82.52°W
Report Text: KPHN 252356Z AUTO 28010G15KT 10SM CLR 15/01 A2973 RMK AO2
Loading
Personal Weather Stations






























Interactive Weather Map
Tropical Storm Tracking
New forecast layout! Learn more

10-Day Weather Forecast

Advertisements
Track Severe Weather on mobile